Tracking 27380 objects as of 6-Jun-2023
HD Live streaming from Space Station
objects crossing your sky now

OPS 4682 DEB

Track OPS 4682 DEB now!
10-day predictions


NORAD ID: 38361
Int'l Code: 1965-027BN
Perigee: 1,246.4 km
Apogee: 1,295.4 km
Inclination: 90.2 °
Period: 110.8 minutes
Semi major axis: 7641 km
RCS: 0.0081 m2 (small)
Launch date: April 3, 1965
Source: United States (US)
Launch site: AIR FORCE WESTERN TEST RANGE (AFWTR)

Note: This is SATELLITE DEBRIS
Your satellite tracking list
Your tracking list is empty




NASA's NSSDC Master Catalog

Two Line Element Set (TLE):
1 38361U 65027BN  23154.76720371  .00000674  00000-0  22249-2 0  9997
2 38361  90.2427 347.2010 0032072 316.7902  43.0704 12.99581015441802
Source of the keplerian elements: AFSPC